Alabaster, AL

12:56 PM CDT on June 23, 2017 (GMT -0500)
Shelby County

Weather History for KEET - March, 2014

Change the Weather History Date:

Tuesday, March 25, 2014

  Actual Average Record
Temperature  
Mean Temperature 46 °F 58 °F  
Max Temperature 54 °F 69 °F 86 °F (2007)
Min Temperature 38 °F 46 °F 20 °F (1966)
Degree Days  
Heating Degree Days 19 8  
Month to date heating degree days 283 265  
Since 1 July heating degree days 2562 2394  
Cooling Degree Days 0 0  
Month to date cooling degree days 0 0  
Year to date cooling degree days 4 4  
Moisture  
Dew Point 22 °F    
Average Humidity 43    
Maximum Humidity 59    
Minimum Humidity 26    
Precipitation  
Precipitation 0.00 in 0.14 in 1.46 in (2009)
Month to date precipitation 4.13 3.67  
Year to date precipitation 12.66 14.75  
Snow  
Snow 0.00 in - - ()
Month to date snowfall 0.0  
Since 1 July snowfall 1.3  
Snow Depth 0.00 in    
Sea Level Pressure  
Sea Level Pressure 30.11 in    
Wind  
Wind Speed 11 mph (NW)    
Max Wind Speed 23 mph    
Max Gust Speed 39 mph    
Visibility 10 miles    
Events      
T = Trace of Precipitation, MM = Missing Value Source: NWS Daily Summary

Daily Weather History Graph

Daily Weather History Graph

Search for Another Location

Airport or City:

Trip Planner

Search our weather history database for the weather conditions in past years. The results will help you decide how hot, cold, wet, or windy it might be!

Date:

Astronomy

Mar. 25, 2014 Rise Set
Actual Time 6:44 AM CDT 7:02 PM CDT
Civil Twilight 6:19 AM CDT 7:27 PM CDT
Nautical Twilight 5:50 AM CDT 7:56 PM CDT
Astronomical Twilight 5:21 AM CDT 8:25 PM CDT
Moon 2:50 AM CDT (3/25) 1:47 PM CDT (3/25)
Length of Visible Light 13h 07m
Length of Day
12h 18m
Waning Crescent, 32% of the Moon is Illuminated
Mar 25
Waning Crescent
Mar 30
New
Apr 7
First Quarter
Apr 15
Full
Apr 22
Last Quarter

Hourly Weather History & Observations

Time (CDT) Temp. Windchill Dew Point Humidity Pressure Visibility Wind Dir Wind Speed Gust Speed Precip Events Conditions
12:53 AM 48.9 °F - 28.9 °F 46% 29.99 in 10.0 mi NW 6.9 mph - N/A   Scattered Clouds
1:53 AM 48.0 °F - 28.0 °F 46% 29.99 in 10.0 mi NW 8.1 mph - N/A   Clear
2:53 AM 46.0 °F 43.9 °F 28.0 °F 50% 29.98 in 10.0 mi NW 4.6 mph - N/A   Clear
3:53 AM 44.1 °F 40.1 °F 28.0 °F 53% 29.98 in 10.0 mi NW 6.9 mph - N/A   Clear
4:53 AM 43.0 °F 38.8 °F 27.0 °F 53% 29.99 in 10.0 mi NW 6.9 mph - N/A   Clear
5:53 AM 41.0 °F 35.8 °F 27.0 °F 57% 30.01 in 10.0 mi NW 8.1 mph - N/A   Clear
6:53 AM 39.9 °F 34.5 °F 27.0 °F 60% 30.04 in 10.0 mi NW 8.1 mph - N/A   Clear
7:53 AM 42.1 °F 36.6 °F 26.1 °F 53% 30.09 in 10.0 mi NW 9.2 mph - N/A   Clear
8:53 AM 45.0 °F 41.2 °F 25.0 °F 46% 30.09 in 10.0 mi NW 6.9 mph - N/A   Clear
9:53 AM 48.9 °F - 21.9 °F 35% 30.10 in 10.0 mi NNW 16.1 mph 27.6 mph N/A   Clear
10:53 AM 50.0 °F - 24.1 °F 36% 30.13 in 10.0 mi NW 20.7 mph 31.1 mph N/A   Clear
11:53 AM 50.0 °F - 25.0 °F 38% 30.13 in 10.0 mi NW 18.4 mph 27.6 mph N/A   Clear
12:53 PM 52.0 °F - 21.9 °F 31% 30.12 in 10.0 mi NW 21.9 mph 32.2 mph N/A   Scattered Clouds
1:53 PM 51.1 °F - 23.0 °F 33% 30.12 in 10.0 mi NW 19.6 mph 29.9 mph N/A   Partly Cloudy
2:53 PM 53.1 °F - 21.0 °F 29% 30.12 in 10.0 mi NNW 16.1 mph 28.8 mph N/A   Scattered Clouds
3:53 PM 52.0 °F - 19.0 °F 27% 30.13 in 10.0 mi NW 16.1 mph 33.4 mph N/A   Partly Cloudy
4:53 PM 52.0 °F - 18.0 °F 26% 30.13 in 10.0 mi NW 16.1 mph 28.8 mph N/A   Scattered Clouds
5:53 PM 48.9 °F - 16.0 °F 27% 30.16 in 10.0 mi NW 17.3 mph 24.2 mph N/A   Clear
6:53 PM 46.9 °F - 15.1 °F 28% 30.17 in 10.0 mi NNW 11.5 mph 26.5 mph N/A   Clear
7:53 PM 45.0 °F 40.6 °F 16.0 °F 31% 30.19 in 10.0 mi NNW 8.1 mph - N/A   Clear
8:53 PM 43.0 °F 38.8 °F 16.0 °F 34% 30.22 in 10.0 mi NNW 6.9 mph - N/A   Clear
9:53 PM 42.1 °F 39.2 °F 17.1 °F 37% 30.24 in 10.0 mi North 4.6 mph - N/A   Clear
10:53 PM 39.9 °F 35.8 °F 17.1 °F 40% 30.25 in 10.0 mi NNW 5.8 mph - N/A   Clear
11:53 PM 39.0 °F 35.7 °F 17.1 °F 41% 30.26 in 10.0 mi NNW 4.6 mph - N/A   Clear